Regional Weather Roundup
Issued by NWS Sterling, VA

Home | Current Version | Previous Version | Graphics & Text | Print | Product List | Glossary On
Versions: 1 2 3 4 5 6 7 8 9 10 11 12 13 14 15 16 17 18 19 20 21 22 23 24 25 26 27 28 29 30 31 32 33 34 35 36 37 38 39 40 41 42 43 44 45 46 47 48 49
000
ASUS41 KLWX 291410
RWRLWX

REGIONAL WEATHER ROUNDUP
NATIONAL WEATHER SERVICE BALTIMORE MD/WASHINGTON DC
1000 AM EDT WED JUL 29 2015

Note: "FAIR" indicates few or no clouds below 12,000 feet
with no significant weather and/or obstructions to visibility.
 TC=TEMPERATURE CELSIUS

 * =Non NWS site. Station does not report precipitation (e.g. rain,
    snow, etc.), thunder, or fog.

DCZ001-MDZ009-015-VAZ040>042-051-053>054-291500-
WASHINGTON METRO

CITY           SKY/WX    TMP DP  RH WIND       PRES   REMARKS
WASHINGTON NAT PTSUNNY   84  75  74 S9        30.01F HX  92
DULLES         MOSUNNY   79  74  84 S6        30.01F
ANDREWS AFB    MOSUNNY   82  74  78 S6        30.01F
FT BELVOIR     PTSUNNY   80  78  92 VRB2      30.01F
QUANTICO       PTSUNNY   80  74  81 S7        30.02F
COLLEGE PARK*  PTSUNNY   82  73  74 SE3       30.01F
LEESBURG*      CLOUDY    79  77  94 SW5       30.03S
MANASSAS*      CLOUDY    77  75  94 CALM      30.01F
GAITHERSBURG*  CLOUDY    79  72  78 SW5       30.06F

$$

MDZ006>007-011-014-291500-
BALTIMORE METRO

CITY           SKY/WX    TMP DP  RH WIND       PRES   REMARKS
BWI AIRPORT    PTSUNNY   83  72  69 S6        30.01F
MD SCIENCE CTR   N/A     84  73  69 MISG      30.01S HX  90
MARTIN STATE   PTSUNNY   82  77  83 SE3       30.03S HX  91
ANNAPOLIS      PTSUNNY   83  72  69 CALM      30.01S
FORT MEADE*    CLOUDY    79  73  83 SE3       30.04S

$$

MDZ012-015-019>023-291500-
MARYLAND EASTERN SHORE

CITY           SKY/WX    TMP DP  RH WIND       PRES   REMARKS
OCEAN CITY     MOSUNNY   82  74  76 SW6       30.03S
SALISBURY      MOSUNNY   83  75  77 SW6       30.02F HX  90
BAY BRIDGE AP*   N/A     81  73  78 W6        30.02S
CAMBRIDGE*     MOSUNNY   82  70  65 SW7       30.02S
EASTON*        MOSUNNY   84  75  74 S6        30.05S HX  92

$$

MDZ017>025-291500-
SOUTHERN MARYLAND

CITY           SKY/WX    TMP DP  RH WIND       PRES   REMARKS
PATUXENT RIVER PTSUNNY   80  72  76 SW10      30.02S
ST INIGOES     MOSUNNY   81  73  76 SW8       30.02S
LEONARDTOWN*   PTSUNNY   82  72  69 S6        30.03F

$$

MDZ003>005-291500-
NORTH CENTRAL MARYLAND

CITY           SKY/WX    TMP DP  RH WIND       PRES   REMARKS
FREDERICK*     CLOUDY    93  73  52 CALM      30.05S FOG     HX 102
HAGERSTOWN APT MOSUNNY   80  70  71 E5        30.02S
WESTMINSTER*   CLOUDY    81  75  83 CALM      30.04S

$$

MDZ501>502-291500-
WESTERN MARYLAND

CITY           SKY/WX    TMP DP  RH WIND       PRES   REMARKS
OAKLAND*       MOSUNNY   72 N/A N/A SE7       30.11S HAZE
CUMBERLAND*    CLOUDY    77  72  83 S5        30.06F

$$

VAZ025>031-291500-
SHENANDOAH VALLEY

CITY           SKY/WX    TMP DP  RH WIND       PRES   REMARKS
WINCHESTER*    CLOUDY    77  73  88 S5        30.03S
FRONT ROYAL*   FAIR      73  72  94 CALM      30.02S
LURAY*         FAIR      81  75  83 W3        30.03F
NEW MARKET*    PTSUNNY   76  72  87 CALM      30.01F
STAUNTON*      CLOUDY    78  73  84 SE3       30.07F
WAYNESBORO*    CLOUDY    74  72  91 CALM      30.07S

$$

WVZ021-048>050-054>055-291500-
EASTERN WEST VIRGINIA PANHANDLE

CITY           SKY/WX    TMP DP  RH WIND       PRES   REMARKS
MARTINSBURG    PTSUNNY   77  71  82 S5        30.02S
PETERSBURG*    CLOUDY   N/A N/A N/A CALM      30.04F

$$

VAZ036>039-050-291500-
CENTRAL FOOTHILLS

CITY           SKY/WX    TMP DP  RH WIND       PRES   REMARKS
CHARLOTTESVILL CLOUDY    77  73  87 SW5       30.03F
CULPEPER*      CLOUDY    74  73  96 SW3       30.03F
ORANGE*        CLOUDY    79  73  83 S3        30.04F
GORDONSVILLE*  CLOUDY    77  73  88 S3        30.02F
WARRENTON*     CLOUDY    79  77  95 S3        30.02F

$$

VAZ055>057-291500-
NORTH AND CENTRAL PIEDMONT

CITY           SKY/WX    TMP DP  RH WIND       PRES   REMARKS
FREDERICKSBRG* CLOUDY    77  77 100 SE3       30.01F
STAFFORD*      CLOUDY    78  73  85 S3        30.05F HAZE

$$

NCZ024-NYZ072-PAZ021-071-VAZ022-071-291500-
OTHER REGIONAL OBSERVATIONS

CITY           SKY/WX    TMP DP  RH WIND       PRES   REMARKS
NEW YORK CITY  SUNNY     87  66  49 VRB3      30.02S
PHILADELPHIA   PTSUNNY   84  73  69 SW8       30.01S HX  90
PITTSBURGH     CLOUDY    80  69  69 SE5       30.02R
ROANOKE        CLOUDY    77  71  82 CALM      30.07F
RICHMOND       CLOUDY    78  72  81 S6        30.03S
RALEIGH        PTSUNNY   81  72  74 S6        30.04S

$$

ANZ530>537-291500-
MARINE OBSERVATIONS

STATION/POSITION TIME  TEMP    WIND        PRES
                       AIR SEA DIR/SP/G
                 (UTC) (F)     (DEG/KT/KT) (MB)
THOMAS PT LIGHT  NOT AVBL
BALT KEY BRIDGE  1300   81      CALM  /  1 1016.3R
COVE POINT       1300   78     240/  7/ 10 1017.2R
LEWISETTA        1300   78 83  230/  8/ 10 1016.5R
SOLOMONS ISLAND  1300      82                N/A

$$




USA.gov is the U.S. government's official web portal to all federal, state and local government web resources and services.